Meteo pe oră la Dabas

Astăzi, 17 Aprilie, Sâmbătă

Timp Temperatura Precipitaţii Vânt Presiune Umiditate
00:00 +4°C° 0 mm 2 m/s 754 mmHg 80%
01:00 +3°C° 0 mm 2 m/s 754 mmHg 85%
02:00 +3°C° 0 mm 2 m/s 754 mmHg 87%
03:00 +2°C° 0 mm 2 m/s 754 mmHg 90%
04:00 +2°C° 0 mm 2 m/s 754 mmHg 92%
05:00 +3°C° 0 mm 2 m/s 754 mmHg 88%
06:00 +4°C° 0 mm 2 m/s 754 mmHg 84%
07:00 +5°C° 0 mm 1 m/s 754 mmHg 80%
08:00 +7°C° 0 mm 1 m/s 754 mmHg 74%
09:00 +8°C° 0 mm 1 m/s 754 mmHg 69%
10:00 +10°C° 0 mm 1 m/s 754 mmHg 63%
11:00 +11°C° 0 mm 1 m/s 754 mmHg 60%
12:00 +10°C° 0 mm 2 m/s 753 mmHg 58%
13:00 +12°C° 0 mm 2 m/s 753 mmHg 55%
14:00 +12°C° 0 mm 2 m/s 753 mmHg 57%
15:00 +10°C° 0 mm 2 m/s 753 mmHg 59%
16:00 +10°C° 0 mm 2 m/s 753 mmHg 60%
17:00 +9°C° 0 mm 3 m/s 752 mmHg 63%
18:00 +9°C° 0 mm 3 m/s 752 mmHg 67%
19:00 +8°C° 0 mm 3 m/s 752 mmHg 70%
20:00 +8°C° 0 mm 3 m/s 752 mmHg 70%
21:00 +7°C° 0 mm 3 m/s 752 mmHg 70%
22:00 +7°C° 0 mm 2 m/s 753 mmHg 70%
23:00 +7°C° 0 mm 2 m/s 752 mmHg 72%

Mâine, 18 Aprilie, Duminică

Timp Temperatura Precipitaţii Vânt Presiune Umiditate
00:00 +5°C° 0 mm 3 m/s 752 mmHg 74%
01:00 +5°C° 0 mm 3 m/s 752 mmHg 76%
02:00 +6°C° 0 mm 2 m/s 752 mmHg 75%
03:00 +6°C° 0 mm 2 m/s 752 mmHg 75%
04:00 +6°C° 0 mm 2 m/s 751 mmHg 74%
05:00 +6°C° 0 mm 2 m/s 752 mmHg 73%
06:00 +7°C° 0 mm 2 m/s 752 mmHg 72%
07:00 +7°C° 0 mm 2 m/s 752 mmHg 71%
08:00 +8°C° 0 mm 2 m/s 752 mmHg 70%
09:00 +8°C° 0 mm 2 m/s 752 mmHg 69%
10:00 +9°C° 0 mm 2 m/s 752 mmHg 67%
11:00 +9°C° 0.2 mm 2 m/s 752 mmHg 70%
12:00 +9°C° 0.2 mm 2 m/s 752 mmHg 73%
13:00 +10°C° 0.2 mm 1 m/s 752 mmHg 76%
14:00 +9°C° 0.2 mm 1 m/s 752 mmHg 80%
15:00 +9°C° 0.2 mm 1 m/s 752 mmHg 83%
16:00 +9°C° 0.2 mm 1 m/s 752 mmHg 87%
17:00 +9°C° 0.3 mm 1 m/s 752 mmHg 89%
18:00 +9°C° 0.3 mm 1 m/s 752 mmHg 92%
19:00 +8°C° 0.3 mm 1 m/s 752 mmHg 94%
20:00 +8°C° 0.5 mm 1 m/s 752 mmHg 95%
21:00 +8°C° 0.5 mm 1 m/s 752 mmHg 95%
22:00 +7°C° 0.5 mm 2 m/s 752 mmHg 96%
23:00 +7°C° 0.6 mm 2 m/s 751 mmHg 96%

Poimâine, 19 Aprilie, Luni

Timp Temperatura Precipitaţii Vânt Presiune Umiditate
00:00 +7°C° 0.6 mm 2 m/s 751 mmHg 96%
01:00 +7°C° 0.6 mm 2 m/s 751 mmHg 97%
02:00 +7°C° 0.4 mm 2 m/s 751 mmHg 96%
03:00 +7°C° 0.4 mm 2 m/s 751 mmHg 96%
04:00 +6°C° 0.4 mm 2 m/s 751 mmHg 96%
05:00 +7°C° 0.2 mm 1 m/s 751 mmHg 95%
06:00 +7°C° 0.2 mm 1 m/s 751 mmHg 95%
07:00 +8°C° 0.2 mm 1 m/s 751 mmHg 94%
08:00 +8°C° 0.1 mm 1 m/s 751 mmHg 92%
09:00 +8°C° 0.1 mm 1 m/s 751 mmHg 90%
10:00 +8°C° 0.1 mm 1 m/s 751 mmHg 87%
11:00 +9°C° 0.1 mm 1 m/s 750 mmHg 86%
12:00 +9°C° 0.1 mm 1 m/s 750 mmHg 85%
13:00 +9°C° 0.1 mm 1 m/s 750 mmHg 83%
14:00 +8°C° 0 mm 2 m/s 750 mmHg 83%
15:00 +8°C° 0 mm 2 m/s 750 mmHg 83%
16:00 +8°C° 0 mm 2 m/s 750 mmHg 83%
17:00 +8°C° 0 mm 2 m/s 750 mmHg 85%
18:00 +8°C° 0 mm 2 m/s 750 mmHg 88%
19:00 +7°C° 0 mm 2 m/s 750 mmHg 91%
20:00 +7°C° 0 mm 2 m/s 750 mmHg 91%
21:00 +8°C° 0 mm 1 m/s 750 mmHg 91%
22:00 +8°C° 0 mm 1 m/s 749 mmHg 91%
23:00 +8°C° 0 mm 1 m/s 749 mmHg 91%

20 Aprilie, Marţi

Timp Temperatura Precipitaţii Vânt Presiune Umiditate
00:00 +7°C° 0 mm 2 m/s 749 mmHg 91%
01:00 +7°C° 0 mm 2 m/s 749 mmHg 91%
02:00 +7°C° 0 mm 2 m/s 749 mmHg 92%
03:00 +6°C° 0 mm 2 m/s 749 mmHg 92%
04:00 +6°C° 0 mm 2 m/s 749 mmHg 93%
05:00 +7°C° 0 mm 2 m/s 749 mmHg 90%
06:00 +8°C° 0 mm 2 m/s 749 mmHg 88%
07:00 +8°C° 0 mm 2 m/s 749 mmHg 86%
08:00 +9°C° 0.2 mm 2 m/s 749 mmHg 81%
09:00 +10°C° 0.2 mm 3 m/s 749 mmHg 76%
10:00 +11°C° 0.2 mm 3 m/s 749 mmHg 71%
11:00 +11°C° 0.2 mm 3 m/s 749 mmHg 68%
12:00 +13°C° 0.2 mm 2 m/s 749 mmHg 66%
13:00 +13°C° 0.2 mm 2 m/s 749 mmHg 64%
14:00 +13°C° 0.1 mm 2 m/s 748 mmHg 64%
15:00 +12°C° 0.1 mm 3 m/s 748 mmHg 64%
16:00 +12°C° 0.1 mm 3 m/s 748 mmHg 65%
17:00 +11°C° 0 mm 3 m/s 748 mmHg 70%
18:00 +10°C° 0 mm 2 m/s 748 mmHg 75%
19:00 +9°C° 0 mm 2 m/s 748 mmHg 80%
20:00 +9°C° 0 mm 2 m/s 749 mmHg 83%
21:00 +8°C° 0 mm 3 m/s 749 mmHg 86%
22:00 +7°C° 0 mm 3 m/s 749 mmHg 90%
23:00 +7°C° 0 mm 3 m/s 749 mmHg 90%

21 Aprilie, Miercuri

Timp Temperatura Precipitaţii Vânt Presiune Umiditate
00:00 +7°C° 0 mm 3 m/s 749 mmHg 91%
01:00 +5°C° 0 mm 3 m/s 749 mmHg 92%
02:00 +5°C° 0 mm 3 m/s 749 mmHg 91%
03:00 +5°C° 0 mm 3 m/s 749 mmHg 91%
04:00 +5°C° 0 mm 3 m/s 749 mmHg 91%
05:00 +7°C° 0 mm 3 m/s 749 mmHg 87%
06:00 +8°C° 0 mm 3 m/s 749 mmHg 82%
07:00 +9°C° 0 mm 3 m/s 749 mmHg 78%
08:00 +11°C° 0 mm 3 m/s 749 mmHg 72%
09:00 +12°C° 0 mm 3 m/s 749 mmHg 66%
10:00 +14°C° 0 mm 3 m/s 750 mmHg 61%
11:00 +15°C° 0.1 mm 4 m/s 749 mmHg 57%
12:00 +15°C° 0.1 mm 4 m/s 749 mmHg 54%
13:00 +16°C° 0.1 mm 5 m/s 749 mmHg 50%
14:00 +16°C° 0 mm 5 m/s 749 mmHg 51%
15:00 +17°C° 0 mm 4 m/s 749 mmHg 52%
16:00 +17°C° 0 mm 4 m/s 748 mmHg 53%
17:00 +14°C° 0 mm 4 m/s 749 mmHg 59%
18:00 +13°C° 0 mm 3 m/s 749 mmHg 66%
19:00 +11°C° 0 mm 3 m/s 749 mmHg 72%
20:00 +12°C° 0 mm 2 m/s 749 mmHg 74%
21:00 +10°C° 0 mm 2 m/s 750 mmHg 77%
22:00 +10°C° 0 mm 2 m/s 750 mmHg 79%
23:00 +9°C° 0.1 mm 2 m/s 750 mmHg 81%

22 Aprilie, Joi

Timp Temperatura Precipitaţii Vânt Presiune Umiditate
00:00 +9°C° 0.1 mm 2 m/s 750 mmHg 83%
01:00 +9°C° 0.1 mm 2 m/s 750 mmHg 85%
02:00 +9°C° 0 mm 2 m/s 750 mmHg 84%
03:00 +9°C° 0 mm 2 m/s 750 mmHg 83%
04:00 +9°C° 0 mm 2 m/s 750 mmHg 82%
05:00 +10°C° 0 mm 3 m/s 750 mmHg 79%
06:00 +10°C° 0 mm 3 m/s 750 mmHg 75%
07:00 +11°C° 0 mm 3 m/s 750 mmHg 72%
08:00 +12°C° 0 mm 3 m/s 750 mmHg 68%
09:00 +14°C° 0 mm 3 m/s 750 mmHg 63%
10:00 +16°C° 0 mm 3 m/s 750 mmHg 59%
11:00 +15°C° 0.2 mm 4 m/s 750 mmHg 62%
12:00 +15°C° 0.2 mm 5 m/s 750 mmHg 65%
13:00 +14°C° 0.2 mm 5 m/s 750 mmHg 67%
14:00 +14°C° 0 mm 5 m/s 750 mmHg 68%
15:00 +14°C° 0 mm 4 m/s 750 mmHg 68%
16:00 +14°C° 0 mm 4 m/s 750 mmHg 69%
17:00 +14°C° 0 mm 3 m/s 750 mmHg 73%
18:00 +13°C° 0 mm 3 m/s 750 mmHg 77%
19:00 +12°C° 0 mm 3 m/s 750 mmHg 81%
20:00 +12°C° 0.2 mm 3 m/s 750 mmHg 84%
21:00 +12°C° 0.2 mm 2 m/s 750 mmHg 87%
22:00 +12°C° 0.2 mm 2 m/s 750 mmHg 91%
23:00 +12°C° 0.4 mm 2 m/s 750 mmHg 92%
Arată mai mult

Formular de consimțământ

Meteoprog și furnizorii noștri de servicii pot stoca și accesa date personale, precum cookies, identificatori de dispozitiv sau alte tehnologii similare pe dispozitivul dumneavoastră și procesa astfel de date pentru a personaliza conținutul și reclamele, dar și pentru a oferi caracteristici de social media și pentru a analiza traficul.

  • Stocarea și/sau accesarea informațiilor pe dispozitivul dumneavoastră

    Cookies, identificatori de dispozitiv sau alte informații pot fi stocate sau accesate pe dispozitiv în scopurile indicate mai sus.

  • Reclame și conținut personalizat, evaluarea reclamelor și a conținutului, informații despre audiențe și dezvoltarea produselor

    Reclamele și conținutul pot fi personalizate pe baza unui profil. Pot fi adăugate date suplimentare pentru a personaliza mai bine reclamele și conținutul. Performanța reclamelor și conținutului poate fi măsurată. Pot fi obținute informații despre utilizatorii care au văzut reclamele și conținutul. Aceste date pot fi utilizate pentru a dezvolta sau îmbunătăți experiența utilizatorilor, sistemele și software-ul.

Dând clic pe ‘Sunt de acord’, permiteți utilizarea cookie-urilor menționate, a identificatorilor de dispozitiv, balizelor web sau altor tehnologii similare. Setările pot fi modificate din browser-ul dispozitivului dumneavoastră.

În anumite scopuri, interesele legitime pot prima asupra consimțământului. Puteți citi mai multe informații în acest sens în Politica privind Confidențialitatea Datelor și Cookie.